When you browse on this site, cookies collect data to enhance your experience and personalize the content and advertising you see.
Visit our Privacy Policy to learn more. By continuing to use the site, you agree to this use of cookies and data.
  • In Belgium
  • List of Countries
  • For 7 days
  • Water Temperature
  • Satellite Maps
  • Weather Map
  • Weather Widgets
  • user-avatar
    Login

    Hourly Weather Tynda

    Today, 23 February, Saturday

    Time Temperature Precipitation Wind Pressure Humidity
    00:00 -13°C° 0 mm 0 mps 705 mmHg 89%
    01:00 -13°C° 0 mm 0 mps 705 mmHg 91%
    02:00 -12°C° 0 mm 0 mps 704 mmHg 93%
    03:00 -12°C° 0.2 mm 0 mps 704 mmHg 94%
    04:00 -11°C° 0.2 mm 1 mps 703 mmHg 96%
    05:00 -11°C° 0.2 mm 1 mps 702 mmHg 97%
    06:00 -11°C° 0.3 mm 0 mps 702 mmHg 97%
    07:00 -11°C° 0.3 mm 0 mps 702 mmHg 97%
    08:00 -9°C° 0 mm 1 mps 701 mmHg 97%
    09:00 -9°C° 0.5 mm 1 mps 700 mmHg 96%
    10:00 -8°C° 0.5 mm 0 mps 700 mmHg 95%
    11:00 -7°C° 0.5 mm 0 mps 699 mmHg 95%
    12:00 -7°C° 0.5 mm 1 mps 699 mmHg 94%
    13:00 -6°C° 0.5 mm 1 mps 698 mmHg 94%
    14:00 -7°C° 0 mm 1 mps 698 mmHg 94%
    15:00 -7°C° 0.4 mm 1 mps 698 mmHg 95%
    16:00 -8°C° 0.4 mm 1 mps 698 mmHg 96%
    17:00 -8°C° 0.4 mm 1 mps 698 mmHg 97%
    18:00 -8°C° 0.4 mm 1 mps 699 mmHg 95%
    19:00 -9°C° 0.4 mm 2 mps 699 mmHg 94%
    20:00 -10°C° 0.4 mm 3 mps 699 mmHg 92%
    21:00 -10°C° 0.1 mm 3 mps 699 mmHg 90%
    22:00 -12°C° 0.1 mm 3 mps 699 mmHg 87%
    23:00 -12°C° 0.1 mm 3 mps 700 mmHg 85%

    Tomorrow, 24 February, Sunday

    Time Temperature Precipitation Wind Pressure Humidity
    00:00 -14°C° 0 mm 3 mps 700 mmHg 85%
    01:00 -15°C° 0 mm 3 mps 700 mmHg 85%
    02:00 -16°C° 0 mm 3 mps 700 mmHg 86%
    03:00 -16°C° 0 mm 3 mps 700 mmHg 87%
    04:00 -16°C° 0 mm 2 mps 700 mmHg 87%
    05:00 -16°C° 0 mm 2 mps 701 mmHg 88%
    06:00 -17°C° 0 mm 2 mps 701 mmHg 88%
    07:00 -17°C° 0 mm 2 mps 702 mmHg 88%
    08:00 -17°C° 0 mm 2 mps 702 mmHg 88%
    09:00 -17°C° 0 mm 3 mps 703 mmHg 85%
    10:00 -17°C° 0 mm 4 mps 703 mmHg 82%
    11:00 -15°C° 0 mm 4 mps 703 mmHg 78%
    12:00 -15°C° 0 mm 4 mps 703 mmHg 78%
    13:00 -14°C° 0 mm 4 mps 703 mmHg 78%
    14:00 -14°C° 0 mm 4 mps 703 mmHg 77%
    15:00 -15°C° 0 mm 4 mps 703 mmHg 80%
    16:00 -15°C° 0 mm 3 mps 703 mmHg 83%
    17:00 -15°C° 0 mm 2 mps 703 mmHg 86%
    18:00 -16°C° 0 mm 2 mps 703 mmHg 88%
    19:00 -18°C° 0 mm 2 mps 703 mmHg 89%
    20:00 -19°C° 0 mm 2 mps 703 mmHg 91%
    21:00 -20°C° 0 mm 2 mps 703 mmHg 91%
    22:00 -19°C° 0 mm 1 mps 703 mmHg 92%
    23:00 -19°C° 0 mm 1 mps 702 mmHg 92%

    Day after tomorrow, 25 February, Monday

    Time Temperature Precipitation Wind Pressure Humidity
    00:00 -19°C° 0 mm 1 mps 702 mmHg 93%
    01:00 -20°C° 0 mm 1 mps 702 mmHg 93%
    02:00 -20°C° 0 mm 1 mps 702 mmHg 93%
    03:00 -20°C° 0 mm 1 mps 702 mmHg 94%
    04:00 -20°C° 0 mm 1 mps 702 mmHg 94%
    05:00 -21°C° 0 mm 1 mps 702 mmHg 94%
    06:00 -20°C° 0 mm 1 mps 702 mmHg 94%
    07:00 -20°C° 0 mm 1 mps 702 mmHg 94%
    08:00 -19°C° 0 mm 1 mps 703 mmHg 94%
    09:00 -17°C° 0 mm 1 mps 703 mmHg 91%
    10:00 -17°C° 0 mm 2 mps 703 mmHg 89%
    11:00 -15°C° 0 mm 2 mps 704 mmHg 86%
    12:00 -15°C° 0 mm 3 mps 704 mmHg 84%
    13:00 -14°C° 0 mm 3 mps 704 mmHg 81%
    14:00 -14°C° 0 mm 4 mps 704 mmHg 79%
    15:00 -14°C° 0 mm 3 mps 705 mmHg 83%
    16:00 -16°C° 0 mm 3 mps 705 mmHg 86%
    17:00 -16°C° 0 mm 2 mps 705 mmHg 90%
    18:00 -17°C° 0 mm 2 mps 705 mmHg 91%
    19:00 -18°C° 0 mm 2 mps 706 mmHg 93%
    20:00 -18°C° 0 mm 1 mps 706 mmHg 94%
    21:00 -18°C° 0 mm 1 mps 706 mmHg 94%
    22:00 -19°C° 0 mm 1 mps 706 mmHg 95%
    23:00 -20°C° 0 mm 1 mps 706 mmHg 95%

    26 February, Tuesday

    Time Temperature Precipitation Wind Pressure Humidity
    00:00 -20°C° 0 mm 1 mps 706 mmHg 95%
    01:00 -20°C° 0 mm 1 mps 706 mmHg 94%
    02:00 -20°C° 0 mm 1 mps 706 mmHg 94%
    03:00 -20°C° 0 mm 1 mps 706 mmHg 93%
    04:00 -20°C° 0 mm 0 mps 705 mmHg 92%
    05:00 -20°C° 0 mm 0 mps 705 mmHg 92%
    06:00 -19°C° 0 mm 0 mps 705 mmHg 91%
    07:00 -18°C° 0 mm 1 mps 705 mmHg 90%
    08:00 -17°C° 0 mm 1 mps 706 mmHg 90%
    09:00 -15°C° 0 mm 1 mps 705 mmHg 88%
    10:00 -12°C° 0 mm 1 mps 705 mmHg 86%
    11:00 -10°C° 0 mm 1 mps 705 mmHg 84%
    12:00 -8°C° 0.1 mm 1 mps 705 mmHg 84%
    13:00 -7°C° 0.1 mm 1 mps 704 mmHg 85%
    14:00 -6°C° 0.1 mm 1 mps 704 mmHg 86%
    15:00 -6°C° 0 mm 1 mps 704 mmHg 88%
    16:00 -7°C° 0 mm 1 mps 704 mmHg 89%
    17:00 -7°C° 0 mm 1 mps 704 mmHg 91%
    18:00 -9°C° 0 mm 1 mps 704 mmHg 92%
    19:00 -11°C° 0 mm 1 mps 704 mmHg 93%
    20:00 -13°C° 0 mm 1 mps 704 mmHg 94%
    21:00 -13°C° 0 mm 1 mps 704 mmHg 95%
    22:00 -14°C° 0 mm 1 mps 704 mmHg 95%
    23:00 -15°C° 0 mm 1 mps 704 mmHg 96%

    27 February, Wednesday

    Time Temperature Precipitation Wind Pressure Humidity
    00:00 -16°C° 0 mm 1 mps 704 mmHg 96%
    01:00 -17°C° 0 mm 0 mps 704 mmHg 97%
    02:00 -17°C° 0 mm 0 mps 704 mmHg 98%
    03:00 -18°C° 0 mm 0 mps 703 mmHg 98%
    04:00 -18°C° 0 mm 1 mps 703 mmHg 98%
    05:00 -18°C° 0 mm 1 mps 703 mmHg 98%
    06:00 -18°C° 0 mm 1 mps 703 mmHg 97%
    07:00 -17°C° 0 mm 1 mps 703 mmHg 95%
    08:00 -16°C° 0 mm 1 mps 704 mmHg 94%
    09:00 -14°C° 0 mm 1 mps 703 mmHg 91%
    10:00 -11°C° 0 mm 1 mps 703 mmHg 89%
    11:00 -9°C° 0 mm 1 mps 703 mmHg 86%
    12:00 -8°C° 0 mm 1 mps 703 mmHg 86%
    13:00 -8°C° 0 mm 2 mps 702 mmHg 86%
    14:00 -7°C° 0 mm 2 mps 702 mmHg 86%
    15:00 -9°C° 0 mm 2 mps 702 mmHg 88%
    16:00 -10°C° 0 mm 2 mps 701 mmHg 90%
    17:00 -13°C° 0 mm 2 mps 701 mmHg 91%
    18:00 -14°C° 0 mm 2 mps 701 mmHg 92%
    19:00 -14°C° 0 mm 1 mps 701 mmHg 93%
    20:00 -15°C° 0 mm 1 mps 701 mmHg 94%
    21:00 -16°C° 0 mm 1 mps 701 mmHg 94%
    22:00 -16°C° 0 mm 1 mps 701 mmHg 94%
    23:00 -17°C° 0 mm 1 mps 701 mmHg 93%

    28 February, Thursday

    Time Temperature Precipitation Wind Pressure Humidity
    00:00 -17°C° 0 mm 1 mps 701 mmHg 94%
    01:00 -17°C° 0 mm 1 mps 700 mmHg 94%
    02:00 -18°C° 0 mm 1 mps 700 mmHg 94%
    03:00 -18°C° 0 mm 1 mps 701 mmHg 94%
    04:00 -19°C° 0 mm 1 mps 701 mmHg 95%
    05:00 -19°C° 0 mm 1 mps 701 mmHg 96%
    06:00 -18°C° 0 mm 1 mps 701 mmHg 95%
    07:00 -18°C° 0 mm 1 mps 702 mmHg 95%
    08:00 -17°C° 0 mm 1 mps 702 mmHg 94%
    09:00 -15°C° 0 mm 1 mps 702 mmHg 89%
    10:00 -12°C° 0 mm 1 mps 703 mmHg 84%
    11:00 -12°C° 0 mm 2 mps 703 mmHg 79%
    12:00 -12°C° 0 mm 2 mps 703 mmHg 77%
    13:00 -12°C° 0 mm 3 mps 703 mmHg 75%
    14:00 -12°C° 0 mm 3 mps 703 mmHg 73%
    15:00 -13°C° 0 mm 3 mps 703 mmHg 77%
    16:00 -13°C° 0 mm 2 mps 703 mmHg 82%
    17:00 -15°C° 0 mm 2 mps 704 mmHg 87%
    18:00 -16°C° 0 mm 2 mps 704 mmHg 89%
    19:00 -15°C° 0 mm 1 mps 704 mmHg 91%
    20:00 -17°C° 0 mm 1 mps 705 mmHg 93%
    21:00 -17°C° 0 mm 1 mps 705 mmHg 93%
    22:00 -18°C° 0 mm 1 mps 705 mmHg 94%
    23:00 -19°C° 0 mm 1 mps 705 mmHg 95%
    Show more